[[{"header":{"parameterUnit":"m.s-1","parameterCategory":1,"la1":30.2991,"la2":30.254,"lo1":-89.0895,"lo2":-89.0444,"dy":0.0017,"dx":0.0017,"nx":28,"ny":28,"refTime":"2023-10-10T21:00:00:Z","depth":0,"parameterNumber":2,"parameterNumberName":"U-component_of_WINDS"},"data":[0,0,0,0,0,0,0,0,0,0,0,0,0,0,0,0,0,0,0,0,0,0,0,0,0,0,0,0,0,0,0,0,0,0,0,0,0,0,0,0,0,0,0,0,0,0,0,0,0,0,0,0,0,0,0,0,0,0,-0.9185,-0.9185,0,-0.9176,-0.9176,-0.9176,-0.9133,-0.9132,-0.9131,-0.913,-0.9123,-0.9124,-0.9124,0,0,0,0,0,0,0,0,0,0,0,0,0,-0.9167,-0.9168,-0.9185,-0.9185,-0.9185,-0.9176,-0.9176,-0.9176,-0.9133,-0.9132,-0.913,-0.9129,-0.9123,-0.9123,-0.9124,0,0,0,0,0,0,0,0,0,0,0,0,0,-0.9168,-0.9168,-0.9185,-0.9162,-0.916,-0.9176,-0.9176,-0.9176,-0.9133,-0.9132,-0.913,-0.9129,-0.9122,-0.9123,-0.9124,-0.9162,0,0,-0.9128,-0.9128,0,0,0,0,0,0,0,0,-0.9168,-0.9169,-0.9166,-0.9164,-0.9161,-0.9154,-0.9167,-0.9171,-0.9134,-0.9144,-0.913,-0.9128,-0.9135,-0.9135,-0.9136,-0.9162,-0.9162,-0.9128,-0.9129,-0.9129,-0.913,0,0,0,0,0,0,0,-0.9168,-0.9169,-0.9181,-0.9166,-0.9163,-0.9153,-0.9152,-0.9168,-0.9148,-0.9143,-0.9139,-0.9139,-0.9133,-0.9135,-0.9136,-0.9162,-0.9128,-0.9129,-0.913,-0.913,-0.9219,-0.922,0,0,0,0,0,0,-0.9171,-0.9169,-0.9182,-0.9181,-0.9161,-0.9155,-0.9153,-0.9158,-0.9147,-0.9144,-0.914,-0.9137,-0.9134,-0.9135,-0.9135,-0.918,-0.9129,-0.913,-0.9131,-0.9217,-0.9219,-0.9221,0,0,0,0,0,0,-0.9171,-0.9173,-0.9182,-0.9174,-0.9175,-0.9157,-0.9163,-0.9159,-0.9161,-0.9146,-0.9142,-0.9146,-0.9133,-0.9134,-0.9156,-0.9179,-0.9131,-0.9132,-0.9215,-0.9218,-0.922,-0.9268,0,0,0,0,0,0,-0.917,-0.9173,-0.9186,-0.9175,-0.9175,-0.9202,-0.9164,-0.916,-0.9163,-0.9158,-0.915,-0.9147,-0.9132,-0.9154,-0.9157,-0.918,-0.9133,-0.9213,-0.9216,-0.9219,-0.9264,-0.9272,-0.9278,0,0,0,0,0,-0.917,-0.9201,-0.9187,-0.9189,-0.9192,-0.9204,-0.9204,-0.9185,-0.9165,-0.9179,-0.9169,-0.9148,-0.9176,-0.9157,-0.916,-0.9183,-0.9211,-0.9215,-0.9219,-0.9261,-0.927,-0.9278,0,0,0,0,0,0,-0.9216,-0.9199,-0.9184,-0.9211,-0.9209,-0.9196,-0.9213,-0.9195,-0.9199,-0.9195,-0.9172,-0.917,-0.9196,-0.9191,-0.9171,-0.9219,-0.919,-0.9194,-0.9221,-0.923,-0.9237,-0.9238,-0.9134,0,0,0,0,0,-0.9229,-0.9239,-0.9224,-0.925,-0.9249,-0.9232,-0.9236,-0.9222,-0.9219,-0.9218,-0.921,-0.9208,-0.9217,-0.9223,-0.923,-0.9263,-0.9262,-0.9281,-0.9288,-0.9293,-0.9298,-0.9316,-0.9325,-0.9233,-0.9233,-0.9233,0,0,-0.9257,-0.9249,-0.9257,-0.9259,-0.9255,-0.9267,-0.9231,-0.9245,-0.9254,-0.922,-0.924,-0.9235,-0.9232,-0.926,-0.9272,-0.9257,-0.9323,-0.9298,-0.9303,-0.9304,-0.9321,-0.9329,-0.9337,-0.9236,-0.9235,-0.9235,0,0,-0.9313,-0.9308,-0.9329,-0.9326,-0.9321,-0.9309,-0.9315,-0.9305,-0.9299,-0.9319,-0.9294,-0.9305,-0.9319,-0.9319,-0.932,-0.9377,-0.9358,-0.938,-0.9417,-0.9435,-0.9442,-0.9448,-0.9469,-0.9477,-0.9384,-0.9384,-0.9384,0,-0.9349,-0.9365,-0.9343,-0.9358,-0.936,-0.9329,-0.9351,-0.935,-0.9348,-0.9351,-0.9334,-0.9352,-0.9348,-0.9376,-0.939,-0.9392,-0.9398,-0.9381,-0.9442,-0.9448,-0.9454,-0.9474,-0.9482,-0.9387,-0.9387,-0.9386,-0.9386,0,-0.9409,-0.942,-0.9438,-0.9437,-0.9441,-0.946,-0.9441,-0.9448,-0.9433,-0.9423,-0.9445,-0.9438,-0.9444,-0.9449,-0.9435,-0.9476,-0.9466,-0.9446,-0.9417,-0.9466,-0.9484,-0.9492,-0.9391,-0.939,-0.9389,-0.9388,0,0,-0.9495,-0.948,-0.9487,-0.9486,-0.9479,-0.9488,-0.9505,-0.951,-0.9517,-0.9517,-0.9532,-0.9545,-0.9527,-0.9528,-0.9514,-0.953,-0.9576,-0.9507,-0.9507,-0.9521,-0.9621,-0.9637,-0.9646,-0.9563,-0.9564,-0.9565,-0.9622,0,-0.9549,-0.9578,-0.9559,-0.9591,-0.9602,-0.9573,-0.9589,-0.9586,-0.9577,-0.9586,-0.9577,-0.9587,-0.9561,-0.9562,-0.9576,-0.9567,-0.9596,-0.9563,-0.9578,-0.9578,-0.958,-0.9656,-0.9672,-0.9726,-0.9629,-0.963,-0.9631,0,-0.9617,-0.9619,-0.9653,-0.9643,-0.9647,-0.9662,-0.9665,-0.9673,-0.967,-0.9662,-0.9665,-0.9646,-0.9664,-0.9634,-0.9659,-0.9637,-0.9641,-0.9638,-0.964,-0.9641,-0.9608,-0.966,-0.9743,-0.9751,-0.9642,-0.9641,-0.964,0,-0.9678,-0.9689,-0.971,-0.9711,-0.97,-0.9711,-0.9707,-0.9702,-0.9706,-0.9709,-0.9712,-0.9717,-0.972,-0.9725,-0.9709,-0.9688,-0.9736,-0.9705,-0.9731,-0.9732,-0.9743,-0.9743,-0.9829,-0.9745,-0.9745,-0.9745,-0.9745,0,-0.9742,-0.9764,-0.9738,-0.9751,-0.9775,-0.9753,-0.9777,-0.977,-0.9766,-0.9779,-0.9753,-0.9766,-0.9743,-0.9753,-0.9741,-0.9764,-0.9765,-0.976,-0.9757,-0.9763,-0.9764,-0.9767,-0.9763,-0.9747,-0.9747,-0.9746,-0.9746,0,-0.9814,-0.9797,-0.9819,-0.9807,-0.9804,-0.9822,-0.9812,-0.9825,-0.9814,-0.983,-0.9832,-0.9816,-0.9827,-0.9811,-0.982,-0.9811,-0.9843,-0.9834,-0.9844,-0.9842,-0.987,-0.9868,-0.9961,-0.9973,-0.9881,-0.9882,-0.9882,0,-0.9856,-0.9872,-0.9862,-0.9867,-0.9865,-0.9875,-0.9879,-0.9858,-0.9863,-0.9861,-0.9874,-0.9882,-0.9888,-0.9907,-0.9896,-0.9903,-0.9894,-0.9927,-0.9895,-0.9901,-0.9896,-0.9896,-0.9898,-0.9933,-0.9934,-0.9935,-0.9936,0,-0.9934,-0.9924,-0.9931,-0.9935,-0.994,-0.9942,-0.9942,-0.9949,-0.9927,-0.9934,-0.9944,-0.9949,-0.9958,-0.9967,-0.9971,-0.9968,-0.9949,-0.9946,-0.9953,-0.996,-0.9966,-0.9964,-0.9863,-0.9944,-0.9943,-0.9943,-0.9942,-0.9942,-0.9993,-1.0006,-1.0,-1.0009,-1.0006,-1.0007,-1.0019,-1.0009,-1.0017,-1.0022,-1.0009,-1.0023,-1.002,-1.0023,-1.0022,-1.0033,-1.0019,-1.0029,-1.0032,-1.0035,-1.0039,-0.9963,-1.0034,-1.0034,-1.0033,-1.0033,-1.0033,0,-1.007,-1.0065,-1.0072,-1.0073,-1.008,-1.006,-1.0059,-1.0067,-1.0079,-1.0077,-1.0083,-1.0095,-1.0104,-1.0094,-1.0101,-1.0112,-1.0103,-1.0114,-1.0114,-1.0114,-1.0051,-1.0045,-1.0121,-1.0121,-1.0121,-1.0121,-1.0121,-1.0121,-1.0111,-1.0132,-1.0123,-1.0143,-1.0138,-1.015,-1.0152,-1.0153,-1.0151,-1.0166,-1.0173,-1.0166,-1.0161,-1.0167,-1.0175,-1.0172,-1.0176,-1.0191,-1.0185,-1.0127,-1.0118,-1.011,-1.0104,-1.0191,-1.0192,-1.0246,-1.0247,-1.0247]},{"header":{"parameterUnit":"m.s-1","parameterCategory":1,"la1":30.2991,"la2":30.254,"lo1":-89.0895,"lo2":-89.0444,"dy":0.0017,"dx":0.0017,"nx":28,"ny":28,"refTime":"2023-10-10T21:00:00:Z","depth":0,"parameterNumber":3,"parameterNumberName":"V-component_of_WINDS"},"data":[0,0,0,0,0,0,0,0,0,0,0,0,0,0,0,0,0,0,0,0,0,0,0,0,0,0,0,0,0,0,0,0,0,0,0,0,0,0,0,0,0,0,0,0,0,0,0,0,0,0,0,0,0,0,0,0,0,0,2.7549,2.7549,0,2.7556,2.7556,2.7556,2.7521,2.752,2.7519,2.7518,2.7524,2.7525,2.7526,0,0,0,0,0,0,0,0,0,0,0,0,0,2.7505,2.7506,2.7549,2.7549,2.755,2.7556,2.7556,2.7556,2.7522,2.752,2.7519,2.7518,2.7524,2.7525,2.7526,0,0,0,0,0,0,0,0,0,0,0,0,0,2.7519,2.7507,2.7549,2.7533,2.7532,2.7556,2.7556,2.7556,2.7522,2.752,2.7519,2.7517,2.7523,2.7525,2.7527,2.7567,0,0,2.7532,2.7532,0,0,0,0,0,0,0,0,2.7519,2.7521,2.7535,2.7534,2.7533,2.7536,2.7543,2.756,2.7522,2.7526,2.7518,2.7517,2.7529,2.753,2.7535,2.7567,2.7567,2.7532,2.7533,2.7533,2.7534,0,0,0,0,0,0,0,2.7518,2.7521,2.7552,2.7536,2.7534,2.7525,2.7525,2.7546,2.7536,2.7525,2.7523,2.7524,2.7528,2.7534,2.7535,2.7567,2.7532,2.7533,2.7534,2.7535,2.7631,2.7633,0,0,0,0,0,0,2.7519,2.752,2.7552,2.7552,2.7522,2.7527,2.7527,2.7537,2.7535,2.7534,2.7525,2.7522,2.7531,2.7533,2.7535,2.758,2.7533,2.7535,2.7536,2.763,2.7632,2.7633,0,0,0,0,0,0,2.7518,2.7522,2.7551,2.7535,2.7538,2.7529,2.754,2.7538,2.7543,2.7536,2.7533,2.7532,2.753,2.7533,2.7559,2.758,2.7536,2.7537,2.7628,2.763,2.7633,2.7673,0,0,0,0,0,0,2.7517,2.7522,2.7538,2.7536,2.7539,2.7576,2.7541,2.7539,2.7546,2.7542,2.7542,2.754,2.7529,2.7557,2.7561,2.7582,2.7538,2.7626,2.7629,2.7632,2.7669,2.7676,2.7682,0,0,0,0,0,2.7516,2.7549,2.7538,2.7542,2.7559,2.7577,2.7579,2.7566,2.7548,2.7563,2.7558,2.754,2.7578,2.756,2.7564,2.7586,2.7625,2.7628,2.7632,2.7667,2.7675,2.7682,0,0,0,0,0,0,2.7552,2.7548,2.7537,2.757,2.7574,2.7571,2.759,2.7575,2.7584,2.7581,2.7564,2.7564,2.7593,2.7592,2.7572,2.7624,2.7598,2.7602,2.7623,2.7631,2.7637,2.7636,2.754,0,0,0,0,0,2.7565,2.758,2.7576,2.7606,2.7608,2.7599,2.7606,2.7596,2.76,2.7601,2.7598,2.7602,2.7614,2.7623,2.7634,2.767,2.7669,2.7687,2.7693,2.7699,2.7702,2.772,2.7727,2.7645,2.7645,2.7645,0,0,2.7589,2.7589,2.76,2.7613,2.7615,2.7631,2.76,2.7619,2.763,2.7604,2.7628,2.7626,2.7629,2.766,2.7674,2.766,2.7725,2.7703,2.7707,2.7708,2.7724,2.7732,2.7739,2.7648,2.7647,2.7647,0,0,2.7642,2.7645,2.7669,2.7672,2.7675,2.7669,2.7675,2.7674,2.7672,2.7696,2.7676,2.769,2.7712,2.7714,2.7718,2.7773,2.7756,2.7777,2.7809,2.7827,2.7833,2.7839,2.7857,2.7864,2.7781,2.7781,2.7782,0,2.7673,2.7696,2.7683,2.7703,2.7709,2.7686,2.771,2.7714,2.772,2.7725,2.771,2.7737,2.7738,2.7768,2.7781,2.7786,2.7792,2.7776,2.7834,2.7839,2.7844,2.7861,2.7868,2.7784,2.7784,2.7783,2.7783,0,2.7733,2.7749,2.7769,2.7776,2.7784,2.7806,2.7796,2.7806,2.7796,2.7791,2.7815,2.7815,2.7825,2.7832,2.7822,2.7862,2.7853,2.7837,2.7809,2.7855,2.787,2.7877,2.7787,2.7786,2.7786,2.7785,0,0,2.7808,2.7808,2.7815,2.7817,2.782,2.7832,2.7853,2.7864,2.7872,2.7878,2.7894,2.7914,2.7898,2.7903,2.7893,2.7909,2.795,2.789,2.789,2.79,2.7992,2.8003,2.8011,2.794,2.7941,2.7942,2.7991,0,2.7858,2.7894,2.7883,2.7918,2.7933,2.7912,2.793,2.7933,2.7929,2.7941,2.7936,2.795,2.7929,2.7932,2.7947,2.7942,2.7968,2.7939,2.7954,2.7954,2.7952,2.8019,2.8031,2.8077,2.7997,2.7998,2.7999,0,2.7922,2.793,2.7967,2.7966,2.7972,2.7988,2.7996,2.8008,2.8011,2.8007,2.8013,2.8,2.802,2.7995,2.8021,2.8001,2.8007,2.8006,2.8007,2.8007,2.7978,2.8018,2.8091,2.8097,2.8009,2.8008,2.8007,0,2.7971,2.7991,2.8016,2.8019,2.8019,2.8031,2.8031,2.8033,2.804,2.8047,2.8051,2.8061,2.8066,2.8074,2.8064,2.8046,2.8091,2.8065,2.8087,2.8087,2.8096,2.8095,2.8169,2.8103,2.8103,2.8103,2.8103,0,2.8027,2.805,2.8037,2.8052,2.8077,2.8065,2.809,2.8088,2.809,2.8103,2.8086,2.81,2.8086,2.8098,2.809,2.8112,2.8115,2.8112,2.8109,2.8112,2.8113,2.8114,2.811,2.8105,2.8104,2.8104,2.8104,0,2.8085,2.8078,2.8103,2.8101,2.8101,2.812,2.8118,2.8131,2.8127,2.8144,2.8148,2.814,2.8153,2.8144,2.8157,2.8152,2.8181,2.8175,2.818,2.8177,2.8199,2.8197,2.8275,2.8284,2.8214,2.8215,2.8216,0,2.8121,2.8138,2.8138,2.8146,2.8148,2.8161,2.8168,2.8157,2.8164,2.8169,2.8182,2.8194,2.8202,2.8224,2.8219,2.8229,2.8222,2.8249,2.8223,2.8226,2.822,2.8219,2.822,2.8253,2.8254,2.8255,2.8255,0,2.8184,2.818,2.819,2.82,2.8209,2.8215,2.8221,2.8228,2.8217,2.8226,2.8239,2.8246,2.826,2.8271,2.8279,2.8279,2.8265,2.8264,2.8269,2.8272,2.8273,2.8271,2.8192,2.8262,2.8261,2.8261,2.826,2.826,2.8231,2.8245,2.8247,2.8259,2.8262,2.8268,2.828,2.8277,2.8288,2.8298,2.8291,2.8306,2.8308,2.8318,2.832,2.8331,2.832,2.8328,2.833,2.8332,2.8334,2.8273,2.8333,2.8333,2.8333,2.8332,2.8332,0,2.8292,2.8293,2.8304,2.8312,2.8322,2.8309,2.8314,2.8322,2.8336,2.834,2.8349,2.8364,2.8375,2.8371,2.8381,2.8391,2.8385,2.8394,2.8392,2.8392,2.8344,2.8338,2.8399,2.8399,2.8399,2.8399,2.8399,2.8399,2.8325,2.8347,2.8343,2.8367,2.8367,2.8382,2.8386,2.8391,2.8393,2.8411,2.842,2.8418,2.8418,2.8428,2.8437,2.8436,2.844,2.8451,2.8447,2.8402,2.8395,2.8389,2.8383,2.8452,2.8452,2.8493,2.8494,2.8494]}]]